Location: Kott?ru
(16.6209°N, 80.6208°E)
Time: 17:10:33
(UTC+00:00)

COSMO-SKYMED 1 - Pass Details

Date: 18 September 2020
Orbit: 621 x 623 km, 97.9° (Epoch: 21 October)

Event Time Altitude Azimuth Distance (km) Brightness Sun altitude
Rises 12:48:11 0° 1° (N) 2,892 6.0 -3.6°
Reaches altitude 10° 12:50:27 10° 355° (N) 1,985 5.3 -4.1°
Maximum altitude 12:54:32 43° 284° (WNW) 868 4.0 -5.1°
Drops below altitude 10° 12:58:38 10° 212° (SSW) 1,982 5.6 -6.1°
Sets 13:00:54 0° 205° (SSW) 2,886 6.3 -6.6°
